Location: Ku?niki
(51.4449°N, 17.8974°E)
Time: 01:05:49
(UTC+00:00)

SPOT 1/Viking Rocket - Pass Details

Date: 18 September 2020
Orbit: 777 x 794 km, 98.5° (Epoch: 23 October)

Event Time Altitude Azimuth Distance (km) Brightness Sun altitude
Exits shadow 19:33:46 59° 93° (E) 906 3.5 -23.8°
Maximum altitude 19:34:10 61° 70° (ENE) 889 3.6 -23.9°
Drops below altitude 10° 19:39:17 10° 351° (N) 2,352 6.6 -24.5°
Sets 19:41:37 0° 348° (NNW) 3,282 7.5 -24.8°
